General Aviation Weather

Text Reports

Enter one or more of the following location identifiers separated by a space:

Zip Code, Four-Character ICAO or Three-Character IATA airport codes.

METAR - Aviation Routine Weather Report
KDTS - Destin, Florida
Updated at 7:53 AM GMT on September 03, 2015 (2:53 AM CDT):
METAR KDTS 030753Z AUTO VRB03KT 10SM CLR 28/24 A2996 RMK AO2 SLP146 T02780244 TSNO
TAF - Terminal Area Forecast
KDTS - Destin, Florida
Updated at 7:53 AM GMT on September 03, 2015 (2:53 AM CDT):
No TAF is currently available for this location.
Decoded:
No decoded TAF is available.
PIREP - Pilot Weather Report
KDTS - Destin, Florida
Updated at 7:53 AM GMT on September 03, 2015 (2:53 AM CDT):
No PIREP is currently available for this location.
AIRMET - Airmens Meteorological Information
KDTS - Destin, Florida
Updated at 7:53 AM GMT on September 03, 2015 (2:53 AM CDT):
No AIRMET is currently available for this location.
SIGMET - Significant Meteorological Information
KDTS - Destin, Florida
Updated at 7:53 AM GMT on September 03, 2015 (2:53 AM CDT):
No SIGMET is currently available for this location.
NOTAM - Notice to Airmen
KDTS - Destin, Florida
Updated at 7:53 AM GMT on September 03, 2015 (2:53 AM CDT):
No NOTAM is currently available for this location.
Forecast Area
KDTS - Destin, Florida
Updated at 7:53 AM GMT on September 03, 2015 (2:53 AM CDT):
No NOTAM is currently available for this location.
Aviation Weather Maps